Regional Weather Roundup
Issued by NWS

Home | Current Version | Previous Version | Text Only | Print | Product List | Glossary On
Versions: 1 2 3 4 5 6 7 8 9 10 11 12 13 14 15 16 17 18 19 20 21 22 23 24 25 26 27 28 29 30 31 32 33 34 35 36 37 38 39 40 41 42 43 44 45 46 47 48 49 50
000
ASUS45 KTFX 180719
RWRMT
MONTANA HOURLY WEATHER ROUNDUP
NATIONAL WEATHER SERVICE GREAT FALLS MT
1219 AM MST THU DEC 18 2014

NOTE: "FAIR" INDICATES FEW OR NO CLOUDS BELOW 12000 FEET WITH NO
SIGNIFICANT WEATHER AND/OR OBSTRUCTIONS TO VISIBILITY.

* THESE STATIONS ARE NOT UNDER NWS QUALITY CONTROL. THEY DO NOT
   REPORT WEATHER SUCH AS PRECIPITATION OR FOG.

MTZ001>007-043-180800-
WEST OF THE DIVIDE
CITY           SKY/WX    TMP DP  RH WIND       PRES   REMARKS
KALISPELL      CLOUDY    28  27  96 CALM      29.97S
MISSOULA       CLOUDY    28  25  89 CALM      30.00R
BUTTE          PTCLDY     9   5  84 CALM      29.98R
MULLAN PASS    LGT SNOW  28  27  96 CALM      29.89S
* ANACONDA     MOCLDY    28  19  69 S11        N/A   WCI  18
* ESSEX        N/A       27  26  96 NW1        N/A
* EUREKA APT   MOCLDY    28  25  89 CALM      30.00S
* HAMILTON APT MOCLDY    28  25  89 NW2       29.97S
* LIBBY APT    CLOUDY    30  28  92 CALM       N/A
* LINCOLN      N/A       19  17  92 NE1        N/A
* LOOKOUT PASS N/A       30  29  96 N/A        N/A
* POLSON       N/A       29  28  96 N/A        N/A
* RONAN APT    MOCLDY    30  28  92 N/A        N/A
* SEELEY LAKE  N/A       20  18  92 N/A        N/A
* THOMP F APT  MOCLDY    23  19  85 NE4        N/A
$$

MTZ008-052>055-180800-
SOUTHWEST MONTANA
CITY           SKY/WX    TMP DP  RH WIND       PRES   REMARKS
BOZEMAN        PTCLDY    16  12  84 CALM      29.99S
DILLON         PTCLDY    19  12  74 S7        29.99S WCI  10
* W YELLOWSTON CLEAR     16  13  88 N/A        N/A
* THREE FORKS  PTCLDY    12 -13  31 N/A        N/A
* BOULDER HILL N/A       24  17  75 SW7        N/A   WCI  16
* MONIDA PASS  N/A       17  16  96 SE6        N/A   WCI   8
* RAYNOLDS PAS N/A       14  -3  46 SE6        N/A   WCI   5
* WHITEHALL    N/A       21  16  81 NW4        N/A
* WISE RIVER   N/A       12   9  88 W5         N/A   WCI   4
$$

MTZ009>010-012-014-046-048-049-054-180800-
EAST SLOPES AND CENTRAL MONTANA
CITY           SKY/WX    TMP DP  RH WIND       PRES   REMARKS
CUT BANK       CLOUDY    14  10  84 N5        29.86S WCI   6
GREAT FALLS    PTCLDY    30  25  82 SW12      29.89S WCI  20
HELENA         FOG       23  21  92 CALM      29.98R VSB 1 1/2
MALMSTROM AFB  PTCLDY    27  23  85 SW9       29.92S WCI  18
* CONRAD       MOCLDY    16  12  84 CALM       N/A
* EAST GLACIER N/A       34  25  70 W23G30     N/A   WCI  22
* MONARCH      N/A       25  17  72 S7G13      N/A   WCI  17
* PENDROY      N/A       28  22  78 W2         N/A
* ROGERS PASS  N/A       29  21  72 E12G19     N/A   WCI  19
* SWEET GRASS  N/A       14  14 100 S6         N/A   WCI   5
* WHITE SULPH  N/A       28  19  69 S10        N/A   WCI  19
$$

MTZ011-013-016-021-035-040-045-047-050-051-180800-
NORTH CENTRAL MONTANA
CITY           SKY/WX    TMP DP  RH WIND       PRES   REMARKS
HAVRE          FOG       21  21 100 CALM      29.94S VSB 1/2
LEWISTOWN      CLEAR     23  18  81 W5        29.91R WCI  16
* N BAR RANCH  CLEAR     27  23  85 CALM      29.91R
* CHINOOK      CLEAR     25  23  92 CALM      29.95S VSB 3/4
* CHESTER      N/A       22  20  92 SW2        N/A
* DENTON       N/A       23  21  92 S9         N/A   WCI  13
* JUDITH GAP   N/A       21  19  92 SW4        N/A
* LOMA         N/A       20  18  92 SW1        N/A
$$

MTZ017>020-022>027-061-062-180800-
NORTHEAST MONTANA
CITY           SKY/WX    TMP DP  RH WIND       PRES   REMARKS
GLASGOW        LGT SNOW  25  19  78 E9        29.97S VSB 1 3/4 WCI  16
GLENDIVE       CLOUDY    23  19  85 CALM      29.98F
JORDAN         PTCLDY    27  23  85 CALM      29.95R
SIDNEY         CLOUDY    23  19  85 SE5       30.04F WCI  16
WOLF POINT     CLOUDY    23  18  81 E7        30.01F WCI  15
* BEAVER HILL  N/A       21  19  92 SE6        N/A   WCI  13
* CIRCLE       N/A       24  21  88 N/A        N/A
* LINDSAY DVD  N/A       20  19  96 SE2        N/A
* NAVAJO       N/A       18  16  92 S6         N/A   WCI  10
* PLENTYWOOD A CLEAR    N/A N/A N/A S7        30.01F
* POPLAR APT   PTCLDY    21  18  88 E6        30.01F WCI  13
* SACO         N/A       24  21  88 E6         N/A   WCI  17
$$

MTZ028>042-056>058-180800-
SOUTHCENTRAL AND SOUTHEAST MONTANA
CITY           SKY/WX    TMP DP  RH WIND       PRES   REMARKS
BAKER          LGT SNOW  23  21  92 SE6       29.96F WCI  16
BILLINGS       FAIR      25  19  78 SW16      29.95R WCI  12
LIVINGSTON     PTCLDY    25  16  69 NW12G28   29.94S WCI  14
MILES CITY     CLOUDY    25  21  85 NE3       29.96S
* FORSYTH APT  PTCLDY    21  21 100 CALM      29.95S VSB 2
* LAUREL APT   CLEAR     25  16  69 SW6        N/A   WCI  18
* ROUNDUP APT  PTCLDY    28  23  81 N/A        N/A
* ALZADA       N/A       16  14  92 E1         N/A
* LAME DEER    N/A       30  28  92 N/A        N/A
* REED POINT   N/A       18  17  96 N/A        N/A
* ROSCOE HILL  N/A       26   9  48 SW6        N/A   WCI  19
$$

REGIONAL REPORTS...DAKOTAS
CITY           SKY/WX    TMP DP  RH WIND       PRES   REMARKS
WILLISTON      CLOUDY    19  16  88 S8        30.05F WCI   9
DICKINSON      CLOUDY    19  16  88 S8        30.01F WCI   9
BEACH          CLOUDY    21  21 100 S7        29.98F WCI  12
CROSBY         CLOUDY    18  16  92 S7        30.06F WCI   9
TIOGA          CLOUDY    16  16 100 S12       30.07F WCI   3
WATFORD CITY   CLOUDY    19  16  88 SE12      30.03F WCI   6
BISMARCK       CLOUDY    18  12  77 S12       30.15F WCI   5
GRAND FORKS    PTCLDY     7   5  91 CALM      30.30F
FARGO          PTCLDY     9   3  76 E6        30.29F WCI  -1
BUFFALO SD     PTCLDY    23  19  85 S8        29.92S WCI  14
RAPID CITY     FOG       21  19  92 SE6       30.00F WCI  13
$$

REGIONAL REPORTS...WYOMING/IDAHO/WASHINGTON
CITY           SKY/WX    TMP DP  RH WIND       PRES   REMARKS
GILLETTE       PTCLDY    27  19  72 SW7       29.94S WCI  19
SHERIDAN       PTCLDY    16  10  77 CALM      29.94S
CODY           PTCLDY    27  16  63 CALM      29.93S
YELLOWSTONE LA PTCLDY    18  14  84 CALM      30.01R
SALMON         PTCLDY    18  16  92 CALM      30.06S
MULLAN PASS    LGT SNOW  28  27  96 CALM      29.89S
SAND POINT     LGT SNOW  32  32 100 CALM      29.98S VSB 2 1/2
SPOKANE        LGT RAIN  36  34  92 NE6       29.95S WCI  31
$$

REGIONAL REPORTS...ALBERTA
CITY           SKY/WX    TMP DP  RH WIND       PRES   REMARKS
CALGARY        FAIR      32  16  52 CALM      29.80S
LETHBRIDGE     FAIR      25  21  85 S8        29.84S WCI  16
MEDICINE HAT   CLEAR     23  21  92 SW18      29.87S WCI   9
EDMONTON       FOG       16  14  92 S5        29.83S VSB M1/4 WCI   8
WATERTON GATE  N/A       36  27  70 SW13       N/A   WCI  27
CARDSTON       N/A       21  21 100 SW1        N/A
MILK RIVER     N/A       10   9  96 S3         N/A
$$

REGIONAL REPORTS...SASKATCHEWAN
CITY           SKY/WX    TMP DP  RH WIND       PRES   REMARKS
SWIFT CURRENT  CLOUDY    23  23 100 SW15G22   29.86F WCI  10
REGINA         FOG       18  16  92 S14G22    30.02F WCI   4
VAL MARIE      N/A       23  23 100 S5         N/A   WCI  16
ASSINIBOIA     N/A       21  19  92 S7         N/A   WCI  12
CORONACH       N/A       19  18  96 S8         N/A   WCI   9

$$



USA.gov is the U.S. government's official web portal to all federal, state and local government web resources and services.